コワルスキー彗星

P/2013 G1 ( Kowalski )

English version
Home page
Updated on June 11, 2016

---------------------------------------------------------------------

・ プロフィール

発見日 2013年4月2日
発見光度 18.5等
発見者 R. A. Kowalski (Mount Lemmon)

・ 写真集

・ 軌道要素

Epoch 2013 Dec. 14.0 TT = JDT 2456640.5
T 2013 Dec. 10.97071 TT                                 MPCW
q   3.3531091            (2000.0)            P               Q
n   0.05465580     Peri.   51.24187     +0.04522084     +0.99698025
a   6.8766755      Node   221.48483     -0.94356517     +0.02187253
e   0.5123939      Incl.    5.46873     -0.32808512     +0.07451154
P  18.0
From 230 observations 2013 Apr. 2-2014 Dec. 10, mean residual 0".5.

・ 光度変化

        m1 = 9.5 + 5 logΔ + 10.0 log r(t - 150)

---------------------------------------------------------------------

軌道要素はM.P.E.C. 2014-Y44に掲載されたものです。
光度グラフはComet for Windowsで作成したものです。

---------------------------------------------------------------------

Copyright(C) Seiichi Yoshida (comet@aerith.net). All rights reserved.